date,time,DOY,Ta_1_1_1,RH_1_1_1,LWin_1_1_1,LWout_1_1_1,SWin_1_1_1,SWout_1_1_1,PPFD_1_1_1,SWC_1_1_1,Ts_1_1_1
[yyyy-mm-dd],[HH:MM],[ddd.ddd],[K],[%],[W+1m-2],[W+1m-2],[W+1m-2],[W+1m-2],[µmol+1m-2s-1],[m+3m-3],[K]
2012-11-22,00:30,327.020,281.07620689655175,79.712758620689655,-9999.0,-9999.0,0.32655172413793110,-3.0365517241379312,1.37931034482758653E-003,-9999.0,279.90999999999991
2012-11-22,01:00,327.041,281.49300000000005,77.384666666666661,-9999.0,-9999.0,0.27233333333333332,-2.9646666666666670,1.33333333333333329E-003,-9999.0,279.90999999999991
2012-11-22,01:30,327.062,281.73833333333346,75.164666666666662,-9999.0,-9999.0,9.83333333333333282E-002,-2.9809999999999990,2.00000000000000004E-003,-9999.0,279.90999999999991
2012-11-22,02:00,327.083,281.84666666666669,73.933666666666653,-9999.0,-9999.0,0.21499999999999997,-3.1423333333333332,-1.15648231731787138E-019,-9999.0,279.90999999999991
2012-11-22,02:30,327.104,282.20200000000011,71.722666666666655,-9999.0,-9999.0,0.23933333333333337,-3.0433333333333339,1.33333333333333329E-003,-9999.0,279.90999999999991
2012-11-22,03:00,327.124,282.33433333333335,70.818333333333371,-9999.0,-9999.0,0.21366666666666662,-3.1006666666666671,-3.33333333333333160E-004,-9999.0,279.90999999999991
2012-11-22,03:30,327.145,282.35300000000007,70.507666666666665,-9999.0,-9999.0,0.24500000000000005,-3.3436666666666661,1.00000000000000002E-003,-9999.0,279.90999999999991
2012-11-22,04:00,327.166,282.35900000000004,70.545000000000016,-9.8449999999999989,-9999.0,0.21266666666666673,-3.3283333333333327,1.33333333333333329E-003,-9999.0,279.90999999999991
2012-11-22,04:30,327.187,282.13233333333329,71.924999999999997,-9.8053846153846145,-9999.0,0.18733333333333338,-3.3236666666666674,-3.33333333333333322E-004,-9999.0,279.90999999999991
2012-11-22,05:00,327.208,282.08600000000007,72.136666666666670,-9.6309523809523796,-9999.0,0.25466666666666671,-3.1563333333333334,3.33333333333333322E-004,-9999.0,279.90999999999991
2012-11-22,05:30,327.229,282.08300000000003,72.006666666666632,-9.6086206896551740,-9999.0,0.19533333333333333,-3.1240000000000006,3.33333333333333322E-004,-9999.0,279.90999999999991
2012-11-22,06:00,327.249,281.98266666666672,72.388999999999982,-9.5040000000000013,-9999.0,0.17400000000000002,-3.0400000000000000,1.15648231731787138E-019,-9999.0,279.90999999999991
2012-11-22,06:30,327.270,281.94233333333329,72.593333333333320,-9.2730000000000015,-9999.0,0.18766666666666673,-2.9446666666666670,3.66666666666666616E-003,-9999.0,279.90999999999991
2012-11-22,07:00,327.291,281.92200000000008,72.542000000000002,-9.2956666666666656,-9999.0,0.25333333333333330,-2.5776666666666670,0.55833333333333346,-9999.0,279.90999999999991
2012-11-22,07:30,327.312,281.88533333333339,72.432666666666677,-9.0466666666666651,-9999.0,0.93099999999999994,2.8203333333333331,12.222333333333333,-9999.0,279.90999999999991
2012-11-22,08:00,327.333,281.88533333333334,72.063333333333318,-8.7806666666666651,-9999.0,3.1726666666666663,23.480000000000008,52.301000000000002,-9999.0,279.90999999999991
2012-11-22,08:30,327.354,282.01833333333337,71.273333333333341,-7.9796666666666676,-9999.0,8.1846666666666668,65.990333333333339,131.53333333333336,-9999.0,279.90999999999991
2012-11-22,09:00,327.374,282.54099999999994,68.972666666666683,-7.6533333333333342,-9999.0,13.752333333333333,110.60599999999998,216.25666666666672,-9999.0,279.90999999999991
2012-11-22,09:30,327.395,283.42766666666665,65.466333333333324,-7.2240000000000020,-9999.0,26.603666666666665,213.15166666666664,405.91833333333324,-9999.0,279.90999999999991
2012-11-22,10:00,327.416,284.07166666666666,63.010666666666665,-6.2569999999999988,-9999.0,34.807000000000002,292.00099999999998,555.69299999999976,-9999.0,279.90999999999991
2012-11-22,10:30,327.437,284.26566666666673,62.043999999999983,-5.9850000000000003,-9999.0,36.519999999999996,311.87299999999988,602.27700000000016,-9999.0,279.90999999999991
2012-11-22,11:00,327.458,284.92399999999998,59.613999999999990,-5.8946666666666658,-9999.0,49.051333333333339,419.78933333333339,805.61266666666654,-9999.0,279.90999999999991
2012-11-22,11:30,327.479,285.10500000000008,58.944333333333347,-6.9500000000000002,-9999.0,36.402666666666661,324.02699999999999,637.13333333333321,-9999.0,279.90999999999991
2012-11-22,12:00,327.499,285.61099999999999,57.170000000000009,-6.0353333333333348,-9999.0,46.087000000000003,408.20300000000009,794.10366666666653,-9999.0,279.90999999999991
2012-11-22,12:30,327.520,286.24500000000000,55.017666666666656,-6.0843333333333334,-9999.0,38.920666666666662,347.65300000000002,682.26833333333320,-9999.0,279.90999999999991
2012-11-22,13:00,327.541,286.55733333333336,53.924333333333337,-6.6429999999999998,-9999.0,28.439666666666671,259.52533333333326,515.40166666666676,-9999.0,279.90999999999991
2012-11-22,13:30,327.562,286.81900000000007,53.270333333333333,-7.7869999999999973,-9999.0,25.558666666666667,234.25866666666664,467.10700000000008,-9999.0,279.90999999999991
2012-11-22,14:00,327.583,287.27433333333346,51.540666666666674,-9.6846666666666668,-9999.0,29.577000000000002,276.97066666666672,539.49200000000008,-9999.0,279.90999999999991
2012-11-22,14:30,327.604,287.37700000000001,50.930666666666660,-9.0533333333333346,-9999.0,19.019333333333343,179.22933333333336,354.14666666666665,-9999.0,279.90999999999991
2012-11-22,15:00,327.624,286.91000000000008,52.883333333333340,-8.8599999999999994,-9999.0,12.706999999999999,114.44266666666663,229.21566666666664,-9999.0,279.90999999999991
2012-11-22,15:30,327.645,286.55733333333336,54.561666666666660,-9.8233333333333324,-9999.0,5.2823333333333347,46.785666666666671,97.690666666666644,-9999.0,279.90999999999991
2012-11-22,16:00,327.666,286.33900000000000,55.320000000000007,-9999.0,-9999.0,3.7223333333333319,29.798666666666659,60.798999999999992,-9999.0,279.90999999999991
2012-11-22,16:30,327.687,285.91100000000000,56.279000000000003,-9999.0,-9999.0,1.6356666666666668,6.9580000000000011,16.105333333333334,-9999.0,279.90999999999991
2012-11-22,17:00,327.708,285.18800000000005,58.945999999999998,-9999.0,-9999.0,0.38166666666666671,-3.9843333333333328,0.68133333333333335,-9999.0,279.90999999999991
2012-11-22,17:30,327.729,284.64300000000003,61.272666666666659,-9999.0,-9999.0,0.41600000000000009,-4.1150000000000002,3.00000000000000006E-003,-9999.0,279.90999999999991
2012-11-22,18:00,327.749,284.28866666666664,62.693666666666665,-9999.0,-9999.0,1.36666666666666586E-002,-2.2796666666666670,1.00000000000000002E-003,-9999.0,279.90999999999991
2012-11-22,18:30,327.770,282.36533333333335,70.309333333333342,-8.5866666666666660,-9999.0,-1.3676666666666661,-2.0360000000000000,3.33333333333333322E-004,-9999.0,279.90999999999991
2012-11-22,19:00,327.791,280.81000000000006,74.541999999999987,-6.4146666666666663,-9999.0,-0.66266666666666663,-1.3216666666666663,2.66666666666666614E-003,-9999.0,279.90999999999991
2012-11-22,19:30,327.812,279.56833333333344,75.639666666666656,-5.9243333333333341,-9999.0,-0.68666666666666643,-1.2426666666666664,1.66666666666666677E-003,-9999.0,279.90999999999991
2012-11-22,20:00,327.833,278.55733333333336,78.746666666666670,-5.7673333333333350,-9999.0,-0.69599999999999995,-1.2363333333333335,3.46944695195361438E-019,-9999.0,279.90999999999991
2012-11-22,20:30,327.854,277.65733333333338,80.630666666666670,-5.0280000000000005,-9999.0,-0.58799999999999997,-1.0373333333333334,0.0000000000000000,-9999.0,279.90999999999991
2012-11-22,21:00,327.874,276.46400000000006,83.796666666666681,-4.1866666666666665,-9999.0,-0.51400000000000001,-1.2333333333333336,3.33333333333333355E-003,-9999.0,279.90999999999991
2012-11-22,21:30,327.895,275.56733333333335,89.463333333333352,-3.6203333333333343,-7.1976190476190478,-0.19466666666666668,-1.8723333333333334,6.66666666666666644E-004,-9999.0,279.90999999999991
2012-11-22,22:00,327.916,274.13400000000001,93.793999999999997,-2.6426666666666678,-6.5626666666666678,-0.67466666666666675,-1.3373333333333335,1.66666666666666677E-003,-9999.0,279.90999999999991
2012-11-22,22:30,327.937,272.55133333333339,89.174666666666653,-2.2963333333333336,-9.0446666666666662,-1.2123333333333337,-1.6976666666666669,6.66666666666666644E-004,-9999.0,279.90999999999991
2012-11-22,23:00,327.958,271.80733333333330,90.548666666666676,-2.3463333333333334,-8.4320000000000004,-0.18099999999999997,-1.5383333333333336,1.33333333333333329E-003,-9999.0,279.90999999999991
2012-11-22,23:30,327.979,270.96666666666664,92.132999999999967,-2.7660000000000000,-8.6592857142857174,-0.19166666666666674,-1.2226666666666666,2.33333333333333353E-003,-9999.0,279.90999999999991
2012-11-23,00:00,328.000,270.83166666666671,92.323666666666654,-2.9470000000000010,-8.6757142857142870,-4.06666666666666704E-002,-1.1339999999999999,2.66666666666666658E-003,-9999.0,279.90999999999991
